Regional Weather Roundup
Issued by NWS Wakefield, VA

Home | Current Version | Previous Version | Text Only | Print | Product List | Glossary Off
Versions: 1 2 3 4 5 6 7 8 9 10 11 12 13 14 15 16 17 18 19 20 21 22 23 24 25 26 27 28 29 30 31 32 33 34 35 36 37 38 39 40 41 42 43 44 45 46 47 48 49 50

000
ASUS41 KAKQ 191110
RWRAKQ

REGIONAL WEATHER ROUNDUP
NATIONAL WEATHER SERVICE WAKEFIELD VA
700 AM EDT TUE AUG 19 2014

Note: "fair" indicates few or no clouds below 12,000 feet with no
significant weather and/or obstructions to visibility. * = Denotes
station may not report precipitation (e.g., rain,snow,etc.),
thunder or fog.

VAZ042-051-052>054-056-191200-
NORTHERN VIRGINIA

CITY           SKY/WX    TMP DP  RH WIND       PRES   REMARKS
WASH NATIONAL  MOCLDY    74  66  76 NE8       29.83S
DULLES         MOCLDY    69  66  90 N7        29.84R
FORT BELVOIR   PTCLDY    72  67  84 NE1       29.82S
QUANTICO       CLOUDY    73  69  87 NE9       29.82S
FREDERICKSBRG* CLOUDY    73  72  99 CALM      29.81R
STAFFORD*      CLOUDY    71  71 100 NE3       29.86R
WARRENTON      CLOUDY    73  72  99 N5        29.82S
CULPEPER*      CLOUDY   N/A N/A N/A N3        29.83S
MANASSAS*      NOT AVBL
LEESBURG*      CLOUDY    70  68  94 NE5       29.85S
WINCHESTER     CLOUDY    68  64  88 CALM      29.85S
$$

VAZ048-049-060>072-079>083-191200-
CENTRAL AND SOUTH CENTRAL VIRGINIA...AND NORTH CENTRAL NORTH CAROLINA

CITY           SKY/WX    TMP DP  RH WIND       PRES   REMARKS
RICHMOND       CLOUDY    72  70  93 N6        29.80R FOG
CHESTERFIELD*  CLOUDY   N/A N/A N/A N5        29.81R
HANOVER        FOG       69  68  96 CALM      29.83R VSB 1
TAPPAHANNOCK*  FOG       70  68  94 CALM      29.81R VSB<1/4
CHARLOTTSVILLE CLOUDY    70  68  93 CALM      29.84R FOG
ORANGE*        CLOUDY    70  68  94 NE6       29.84R FOG
LOUISA*        CLOUDY    72  70  94 CALM      29.82R FOG
FARMVILLE*     CLOUDY    72  70  94 CALM      29.81R FOG
SOUTH HILL*    CLOUDY    72  72 100 NW5       29.86R
ROANOKE RAPIDS CLOUDY    72  70  94 CALM      29.79R
RALEIGH        MOCLDY    70  68  93 CALM      29.82R FOG
$$

VAZ088>098-191200-
SOUTHEAST VIRGINIA

CITY           SKY/WX    TMP DP  RH WIND       PRES   REMARKS
NORFOLK        CLOUDY    74  71  91 S3        29.78R
VIRGINIA BEACH CLOUDY    73  71  93 S3        29.78R
NORFOLK NAVAL  CLOUDY    75  72  90 CALM      29.80R FOG
WEST POINT*    CLOUDY    73  70  92 CALM      29.81R
NEWPORT NEWS   CLOUDY    77  72  84 CALM      29.79R HAZE
LANGLEY AFB    DRIZZLE   73  73 100 S5        29.78R FOG
FORT EUSTIS    DRIZZLE   73 N/A N/A NE2       29.77R FOG
WILLIAMSBURG*  CLOUDY    73  73 100 CALM      29.80R
FRANKLIN*      CLOUDY    72  72 100 S3        29.79R
WAKEFIELD      CLOUDY    73  71  93 CALM      29.78R FOG
$$

VAZ020-022-025-037-045-191200-
WESTERN AND SOUTHWEST VIRGINIA

CITY           SKY/WX    TMP DP  RH WIND       PRES   REMARKS
STAUNTON*      CLOUDY    64  62  93 CALM      29.89R FOG
HOT SPRINGS VA NOT AVBL
LYNCHBURG      CLOUDY    69  68  96 CALM      29.86R FOG
DANVILLE       CLOUDY    72  70  93 CALM      29.84R
MARTINSVILLE   FOG       68  68  99 CALM      29.89R VSB 1/4
ROANOKE        CLOUDY    70  68  93 CALM      29.88R
BLACKSBURG     CLOUDY    68  68 100 CALM      29.93R FOG
DUBLIN*        CLOUDY    68  68 100 SW6       29.93R
MARION*        CLOUDY    68  67  94 W7        29.97R FOG
HILLSVILLE*    PTCLDY    65  64  96 W3        29.95R
RICHLANDS*     FOG       69  67  94 SW3       29.96R VSB<1/4
WISE*          FOG       66  66 100 W5        29.97R VSB 1
ABINGDON*      CLOUDY    70  70 100 W6        29.94R FOG
$$

MDZ021>025-VAZ099-100-191200-
SOUTHERN MARYLAND AND THE DELMARVA PENINSULA

CITY           SKY/WX    TMP DP  RH WIND       PRES   REMARKS
PATUXENT RIVER PTCLDY    72  70  93 NE8       29.79F
BAY BRIDGE APT   N/A     72  66  83 E5        29.83S
LEONARDTOWN    MOCLDY    70  68  94 CALM      29.81F
DOVER          CLOUDY    71  70  97 N6        29.84R
GEORGETOWN     CLOUDY    73  68  84 E12       29.84R
EASTON         CLOUDY    72  68  88 NE7       29.86S
CAMBRIDGE      PTCLDY    72  68  88 NE5       29.81R
SALISBURY      CLOUDY    75  71  87 NE8       29.81S
OCEAN CITY     CLOUDY    75  70  84 E9        29.82R
WALLOPS ISLAND CLOUDY    76  73  91 E12       29.81R
ACCOMACK*      CLOUDY    70  68  94 CALM      29.79R FOG
$$

NCZ012>017-030>032-191200-
EASTERN NORTH CAROLINA

CITY           SKY/WX    TMP DP  RH WIND       PRES   REMARKS
ELIZABETH CITY CLOUDY    73  71  93 CALM      29.81R FOG
AHOSKIE*       CLOUDY    70  69  96 CALM      29.80R
EDENTON*       CLOUDY    71  70  97 W3        29.81R
CURRITUCK*     CLOUDY    73  71  91 CALM      29.81R FOG
KILL DEVIL HLS CLOUDY    73  72  95 SW3       29.80R
MANTEO         CLOUDY    73  70  88 SW6       29.81R
CAPE HATTERAS  CLOUDY    76  73  91 W6        29.81R
GOLDSBORO      PTCLDY    72  72  99 W5        29.79R
WASHINGTON     CLEAR     70  69  95 SW3       29.81R
GREENVILLE     CLOUDY    70  70 100 CALM      29.83R
NEW BERN       CLEAR     73  69  87 SW3       29.81R
WILMINGTON     PTCLDY    75  70  84 SW9       29.82S
$$

VAZ048-191200-
ELSEWHERE

CITY           SKY/WX    TMP DP  RH WIND       PRES   REMARKS
HARRISBURG PA  PTCLDY    65  56  72 CALM      29.87R
BALTIMORE      MOCLDY    70  66  87 NE8       29.83S
ANNAPOLIS      PTCLDY    72  66  81 E7        29.82F
ANDREWS AFB    PTCLDY    70  67  92 NE9       29.82S
WILMINGTON DE  CLEAR     67  61  81 NE3       29.87R
PHILADELPHIA   PTCLDY    66  57  72 E5        29.88R
WILDWOOD NJ*   CLOUDY    73  64  73 E6        29.87R
ATLANTIC CITY  CLEAR     65  63  93 E3        29.87R
HENDERSON NC   CLOUDY    71  70  95 NW5       29.82R FOG
GREENSBORO     MOCLDY    69  67  93 CALM      29.85R
ROCKY MOUNT    CLOUDY    73  71  93 W5        29.81R
FAYETTEVILLE   CLEAR     74  71  91 SW8       29.81R
CHARLOTTE      MOCLDY    71  68  90 CALM      29.86R
$$

VAZ100-191200-
MARINE

STATION/POSITION TIME  TEMP    WIND        PRES    WAVE   SWELL
                       AIR SEA DIR/SP/G            HT/PER HT/PER
                 (UTC) (F)     (DEG/KT/KT) (MB)    (FT/S) (FT/S)
44066 TX TWR #4  1100   73 73  130/  8/ 10 1011.6R   2/ 9   2/ 9
CAPE MAY NJ      1100   72 79  100/  5/  6 1010.3R
LEWES DE         1100   73 75  120/ 11/ 15 1010.0R
15NM E FENWICK I 1100   73 75              1009.6R   3/ 4
OCEAN-CITY-INLET 1100   74 74  110/  9/ 12 1009.3R
WACHAPREAGUE VA  1100   72 80  360/  3/  3 1008.8R
THOMAS POINT MD  1100   72 77   60/ 13/ 14 1010.3S
GOOSES REEF MD   1100   74      80/ 10/ 14 1009.7F
COVE POINT MD    1100   72      90/ 10/ 11 1009.1S
SOLOMONS ISLAND  1100      79                N/A
BISHOPS HEAD MD  1100   72 77   20/  6/  9 1008.5S
PINEY POINT MD   1100           50/  5/  7   N/A
POTOMAC MD       1100   76      50/ 10/ 12 1007.9S
CAMBRIDGE MD     1100   73 78   40/  8/ 10 1009.2R
LEWISETTA VA     1100   75 78   40/  7/ 10 1008.4R
RAPPAHANNOCK LGT 1100           60/  7/  8 1009.1R
STINGRAY PT      1100   76      60/  8/ 10 1009.3R
YORK RVR RNG VA  1100   75     110/  8/  9 1008.0R
YORKTOWN VA      1100   75 80  130/  6/  7 1008.2R
JAMESTOWN VA     1100   72      90/  4/  6   N/A
DOMINION TERM VA 1100   75     200/  5/  7 1008.4R
KIPTOPEKE VA     1100      82  100/  4/  5   N/A
CHES BAY BRIDGE  1100   75 75  160/  6/  7 1007.9R
CAPE HENRY VA    1100   73     200/  5/  7 1007.3R
CHESAPEAKE LGHT  1000   75      70/  9/  9 1008.9R
WILLOUBY STN VA  1100   74     160/  7/  7 1007.2R
S CRANEY ISL VA  1100          160/  3/  5 1008.2R
CAPE HENRY BUOY  1100      77                N/A     2/ 4
1ST LANDING BUOY 1100   75     170/  4/  6 1008.1R
CAPE CHARLES BUO 1100      76                N/A     2/ 8   2/ 8
OFFSHORE WE BUOY 1100      76                N/A     2/ 4   2/ 4
64NM E OF VA BCH 1100   77 78   10/  6/  8 1008.3R   2/ 5   2/ 5
DUCK PIER NC     1100   75 77  280/  2/  3 1008.5R
44056 DUCK FRF   1100                        N/A     1/ 5
OREGON INLET NC  1100   76 80  240/  4/  5 1009.3R
HATTERAS NC      1100   77 81  230/  5/  7 1009.8S
DIAMOND SHLS NC  1100   79     220/ 12/ 12 1009.4R   3/ 6   2/ 6
CAPE LOOKOUT NC  1000   79     220/ 10/ 15 1009.1R
$$


USA.gov is the U.S. government's official web portal to all federal, state and local government web resources and services.